TimeCDT,TemperatureF,Dew PointF,Humidity,Sea Level PressureIn,VisibilityMPH,Wind Direction,Wind SpeedMPH,Gust SpeedMPH,PrecipitationIn,Events,Conditions,WindDirDegrees,DateUTC
12:15 AM,28.4,19.4,69,30.41,10.0,Calm,Calm,-,N/A,,Clear,0,2013-03-14 05:15:00
12:35 AM,28.4,23.0,80,30.41,10.0,Calm,Calm,-,N/A,,Clear,0,2013-03-14 05:35:00
12:55 AM,26.6,23.0,86,30.41,10.0,Calm,Calm,-,N/A,,Clear,0,2013-03-14 05:55:00
1:15 AM,28.4,21.2,74,30.41,10.0,Calm,Calm,-,N/A,,Clear,0,2013-03-14 06:15:00
1:35 AM,26.6,23.0,86,30.41,10.0,Calm,Calm,-,N/A,,Clear,0,2013-03-14 06:35:00
1:55 AM,26.6,23.0,86,30.40,10.0,Calm,Calm,-,N/A,,Clear,0,2013-03-14 06:55:00
2:15 AM,26.6,24.8,93,30.41,10.0,Calm,Calm,-,N/A,,Clear,0,2013-03-14 07:15:00
2:35 AM,26.6,24.8,93,30.41,10.0,Calm,Calm,-,N/A,,Clear,0,2013-03-14 07:35:00
2:55 AM,26.6,23.0,86,30.40,10.0,Calm,Calm,-,N/A,,Clear,0,2013-03-14 07:55:00
3:15 AM,26.6,23.0,86,30.40,10.0,Calm,Calm,-,N/A,,Clear,0,2013-03-14 08:15:00
3:35 AM,26.6,24.8,93,30.40,10.0,Calm,Calm,-,N/A,,Clear,0,2013-03-14 08:35:00
3:55 AM,26.6,24.8,93,30.39,10.0,Calm,Calm,-,N/A,,Clear,0,2013-03-14 08:55:00
4:15 AM,26.6,23.0,86,30.38,10.0,Calm,Calm,-,N/A,,Clear,0,2013-03-14 09:15:00
4:35 AM,26.6,23.0,86,30.37,10.0,Calm,Calm,-,N/A,,Clear,0,2013-03-14 09:35:00
4:55 AM,26.6,24.8,93,30.37,10.0,Calm,Calm,-,N/A,,Clear,0,2013-03-14 09:55:00
5:15 AM,26.6,21.2,80,30.37,10.0,Calm,Calm,-,N/A,,Clear,0,2013-03-14 10:15:00
5:35 AM,24.8,21.2,86,30.38,10.0,Calm,Calm,-,N/A,,Clear,0,2013-03-14 10:35:00
5:55 AM,26.6,23.0,86,30.37,10.0,SSE,3.5,-,N/A,,Clear,160,2013-03-14 10:55:00
6:15 AM,26.6,23.0,86,30.37,10.0,SSE,3.5,-,N/A,,Scattered Clouds,150,2013-03-14 11:15:00
6:35 AM,28.4,23.0,80,30.37,10.0,SSE,3.5,-,N/A,,Overcast,160,2013-03-14 11:35:00
6:55 AM,30.2,21.2,69,30.37,10.0,South,8.1,-,N/A,,Overcast,170,2013-03-14 11:55:00
7:15 AM,32.0,21.2,64,30.35,10.0,South,8.1,-,N/A,,Overcast,170,2013-03-14 12:15:00
7:35 AM,32.0,21.2,64,30.36,10.0,South,8.1,-,N/A,,Overcast,190,2013-03-14 12:35:00
7:55 AM,32.0,21.2,64,30.38,10.0,South,6.9,-,N/A,,Overcast,190,2013-03-14 12:55:00
8:15 AM,32.0,21.2,64,30.37,10.0,South,9.2,-,N/A,,Overcast,170,2013-03-14 13:15:00
8:35 AM,33.8,23.0,65,30.36,10.0,South,11.5,-,N/A,,Overcast,170,2013-03-14 13:35:00
8:55 AM,33.8,23.0,65,30.37,10.0,South,9.2,-,N/A,,Overcast,180,2013-03-14 13:55:00
9:15 AM,33.8,24.8,70,30.37,10.0,South,5.8,-,N/A,,Scattered Clouds,180,2013-03-14 14:15:00
9:35 AM,35.6,24.8,65,30.38,10.0,South,9.2,-,N/A,,Scattered Clouds,180,2013-03-14 14:35:00
9:55 AM,35.6,24.8,65,30.36,10.0,South,10.4,-,N/A,,Scattered Clouds,170,2013-03-14 14:55:00
10:15 AM,37.4,23.0,56,30.36,10.0,South,12.7,-,N/A,,Mostly Cloudy,170,2013-03-14 15:15:00
10:35 AM,37.4,21.2,52,30.37,10.0,South,10.4,-,N/A,,Mostly Cloudy,170,2013-03-14 15:35:00
10:55 AM,37.4,24.8,60,30.36,10.0,South,10.4,-,N/A,,Mostly Cloudy,190,2013-03-14 15:55:00
11:15 AM,39.2,23.0,52,30.34,10.0,South,11.5,-,N/A,,Scattered Clouds,180,2013-03-14 16:15:00
11:35 AM,39.2,23.0,52,30.34,10.0,South,9.2,19.6,N/A,,Scattered Clouds,170,2013-03-14 16:35:00
11:55 AM,39.2,21.2,49,30.35,10.0,SSW,9.2,18.4,N/A,,Scattered Clouds,200,2013-03-14 16:55:00
12:15 PM,39.2,23.0,52,30.33,10.0,South,12.7,-,N/A,,Scattered Clouds,170,2013-03-14 17:15:00
12:35 PM,39.2,24.8,56,30.31,7.0,South,10.4,17.3,N/A,,Scattered Clouds,170,2013-03-14 17:35:00
12:55 PM,39.2,26.6,61,30.29,10.0,SSE,13.8,17.3,N/A,Rain,Light Rain,160,2013-03-14 17:55:00
1:15 PM,39.2,28.4,65,30.27,10.0,SSE,11.5,21.9,N/A,,Clear,150,2013-03-14 18:15:00
1:35 PM,42.8,26.6,53,30.25,10.0,SSE,15.0,21.9,N/A,,Clear,160,2013-03-14 18:35:00
1:55 PM,41.0,26.6,57,30.22,10.0,SSE,12.7,20.7,N/A,,Clear,160,2013-03-14 18:55:00
2:15 PM,42.8,28.4,57,30.22,10.0,SSE,8.1,16.1,N/A,,Clear,160,2013-03-14 19:15:00
2:35 PM,41.0,30.2,65,30.20,10.0,South,13.8,18.4,N/A,Rain,Light Rain,170,2013-03-14 19:35:00
2:55 PM,42.8,30.2,61,30.23,10.0,SSE,5.8,-,N/A,,Scattered Clouds,150,2013-03-14 19:55:00
3:15 PM,42.8,32.0,66,30.20,10.0,SSE,6.9,-,N/A,Rain,Rain,150,2013-03-14 20:15:00
3:35 PM,44.6,32.0,61,30.18,10.0,SSE,13.8,19.6,N/A,,Clear,160,2013-03-14 20:35:00
3:55 PM,46.4,32.0,57,30.18,10.0,South,13.8,-,N/A,,Clear,180,2013-03-14 20:55:00
4:15 PM,44.6,30.2,57,30.17,10.0,South,17.3,20.7,N/A,Rain,Light Rain,180,2013-03-14 21:15:00
4:35 PM,46.4,32.0,57,30.17,10.0,South,15.0,19.6,N/A,,Scattered Clouds,170,2013-03-14 21:35:00
4:55 PM,46.4,33.8,62,30.16,10.0,South,11.5,19.6,N/A,,Scattered Clouds,170,2013-03-14 21:55:00
5:15 PM,46.4,33.8,62,30.15,10.0,South,12.7,18.4,N/A,,Clear,180,2013-03-14 22:15:00
5:35 PM,46.4,33.8,62,30.15,10.0,South,15.0,20.7,N/A,,Clear,170,2013-03-14 22:35:00
5:55 PM,46.4,33.8,62,30.14,10.0,SSE,10.4,-,N/A,,Clear,160,2013-03-14 22:55:00
6:15 PM,48.2,33.8,58,30.14,10.0,South,11.5,-,N/A,,Clear,170,2013-03-14 23:15:00
6:35 PM,46.4,33.8,62,30.13,10.0,SSE,10.4,-,N/A,,Clear,160,2013-03-14 23:35:00
6:55 PM,46.4,33.8,62,30.13,10.0,SSE,9.2,-,N/A,,Clear,160,2013-03-14 23:55:00
7:15 PM,46.4,33.8,62,30.13,10.0,SSE,6.9,-,N/A,,Clear,160,2013-03-15 00:15:00
7:35 PM,44.6,33.8,66,30.13,10.0,SE,5.8,-,N/A,,Clear,140,2013-03-15 00:35:00
7:55 PM,44.6,33.8,66,30.13,10.0,SE,5.8,-,N/A,,Clear,130,2013-03-15 00:55:00
8:15 PM,44.6,33.8,66,30.13,10.0,ESE,4.6,-,N/A,,Clear,120,2013-03-15 01:15:00
8:35 PM,41.0,33.8,76,30.14,10.0,East,6.9,-,N/A,,Clear,100,2013-03-15 01:35:00
8:55 PM,39.2,32.0,75,30.14,10.0,East,5.8,-,N/A,,Clear,100,2013-03-15 01:55:00
9:15 PM,37.4,32.0,81,30.14,10.0,East,6.9,-,N/A,,Clear,100,2013-03-15 02:15:00
9:35 PM,37.4,32.0,81,30.14,10.0,ESE,4.6,-,N/A,,Clear,110,2013-03-15 02:35:00
9:55 PM,37.4,32.0,81,30.14,10.0,ESE,5.8,-,N/A,,Clear,120,2013-03-15 02:55:00
10:15 PM,37.4,30.2,75,30.15,10.0,ESE,4.6,-,N/A,,Clear,110,2013-03-15 03:15:00
10:35 PM,37.4,30.2,75,30.14,10.0,SE,6.9,-,N/A,,Clear,130,2013-03-15 03:35:00
10:55 PM,35.6,30.2,81,30.14,10.0,ESE,3.5,-,N/A,,Clear,110,2013-03-15 03:55:00
11:15 PM,35.6,30.2,81,30.13,10.0,SE,5.8,-,N/A,,Clear,130,2013-03-15 04:15:00
11:35 PM,35.6,30.2,81,30.13,10.0,SE,6.9,-,N/A,,Clear,130,2013-03-15 04:35:00
11:55 PM,35.6,30.2,81,30.11,10.0,SE,6.9,-,N/A,,Clear,130,2013-03-15 04:55:00